Location: San Pelegr�n
(42.1868°N, 0.0079°E)
Time: 14:59:39
(UTC+00:00)

Cosmos 1842 Rocket - Pass Details

Date: 24 January 2020
Orbit: 606 x 633 km, 82.5° (Epoch: 22 February)

Event Time Altitude Azimuth Distance (km) Brightness Sun altitude
Rises 18:12:45 0° 3° (N) 2,930 6.8 -12.9°
Reaches altitude 10° 18:15:17 10° 15° (NNE) 2,020 5.9 -13.3°
Maximum altitude 18:19:06 27° 74° (ENE) 1,215 4.5 -14.0°
Drops below altitude 10° 18:22:55 10° 133° (SE) 2,012 5.9 -14.7°
Sets 18:25:26 0° 145° (SE) 2,915 6.8 -15.2°
